Theta_e
307 305 305 305 304 305 306 306 307 307 308 309 308 306 307 307 305 307 308 306 305 303 301 299 297 296 295 294 294 294 294 294 295 297 298 299 300 302 304 305 307 310 313 317
304 306 307 307 307 307 308 308 309 307 309 308 307 305 305 306 308 306 304 303 301 300 298 297 295 294 293 292 292 292 292 292 293 294 294 295 296 298 299 302 305 307 308 311
304 306 308 308 308 309 309 308 308 308 307 306 305 305 306 307 307 305 302 300 299 298 296 295 294 292 292 291 290 290 290 290 291 291 291 292 294 295 297 299 301 303 304 306
307 308 309 309 310 308 307 307 307 306 304 304 304 304 304 307 306 304 301 298 297 295 294 293 292 291 290 290 289 289 288 289 290 289 290 290 291 292 293 294 297 299 301 303
308 308 307 307 307 307 307 306 306 305 304 304 303 303 303 307 307 304 300 298 296 294 293 292 292 290 289 289 289 288 288 288 289 289 288 289 289 290 291 292 294 296 298 299
307 306 305 305 306 306 306 305 304 303 303 305 305 303 303 308 306 303 300 298 296 294 292 292 290 289 289 289 289 288 289 288 288 288 288 288 288 288 289 291 292 294 296 298
305 305 304 305 304 305 305 303 305 306 307 307 305 305 309 305 303 301 300 297 295 293 292 290 289 289 288 288 288 288 289 288 288 288 288 288 288 288 289 290 292 293 294 296
305 306 306 306 305 305 304 304 306 310 310 306 305 305 308 303 302 301 299 296 294 292 290 289 289 288 288 288 288 289 288 288 287 287 287 288 289 290 291 292 293 294 295 296
306 306 305 304 305 305 305 304 304 305 304 305 304 308 305 303 302 301 299 296 293 291 289 288 288 288 287 287 288 289 287 287 287 287 288 289 290 291 293 293 294 295 296 297
306 306 305 305 304 304 304 303 304 305 308 307 304 305 307 304 303 300 298 295 292 290 288 288 287 287 287 287 287 288 287 286 287 287 287 288 289 290 292 293 295 296 299 299
303 303 304 303 303 303 303 302 303 304 305 305 304 299 297 298 299 298 296 294 292 289 287 287 287 286 286 286 285 287 286 286 286 286 287 288 288 289 290 291 292 292 294 296
303 302 303 303 303 303 303 303 304 304 305 303 304 303 301 299 298 296 295 294 292 289 287 286 286 285 285 285 284 285 285 285 285 285 286 287 288 288 288 288 289 290 291 291
302 302 302 303 302 305 306 307 308 307 303 304 301 300 300 299 296 295 294 292 290 289 287 286 285 284 284 284 283 284 283 284 283 284 284 285 287 287 287 287 287 288 289 289
303 302 302 304 303 303 302 303 302 307 304 306 302 297 302 301 297 295 293 291 289 288 287 286 284 283 283 283 282 282 283 283 282 283 283 283 284 286 286 285 285 285 286 287
300 302 298 301 303 303 302 302 302 301 303 307 300 302 298 299 296 294 291 290 289 287 286 284 283 283 282 282 282 282 282 282 281 282 281 281 282 284 285 284 283 284 283 284
300 300 294 293 302 303 302 302 301 302 302 300 299 303 297 295 292 292 291 289 288 286 284 283 282 282 281 281 281 281 281 281 280 280 280 280 280 282 282 284 283 282 282 282
299 297 294 298 303 305 306 303 301 299 301 302 303 302 295 295 294 291 289 288 286 284 283 282 282 281 281 281 281 281 281 281 280 279 279 278 279 279 280 280 281 280 280 280
299 299 299 303 301 306 301 303 303 304 304 301 299 297 296 295 290 289 288 286 285 283 282 281 281 280 280 280 280 280 281 281 280 279 279 278 277 278 278 279 278 278 278 278
301 300 300 301 305 304 305 303 304 303 303 300 298 296 292 290 288 287 285 284 282 281 280 280 280 280 280 281 280 280 280 281 280 279 279 278 277 276 276 277 278 277 277 277
302 301 300 304 307 308 304 305 303 303 300 299 298 294 292 290 294 289 284 282 281 280 280 280 280 280 280 281 281 281 281 281 280 279 278 278 277 276 276 276 276 276 276 276
305 304 304 304 306 305 304 302 302 301 300 299 295 293 291 291 292 286 284 281 280 280 280 280 280 280 280 281 281 281 281 281 281 280 279 278 277 276 276 276 275 275 276 276
307 306 306 306 306 305 300 301 303 299 297 297 295 293 290 285 284 283 282 281 280 280 280 280 279 279 279 280 281 280 280 281 280 280 280 279 278 277 276 276 275 275 275 276
307 304 302 302 302 297 298 299 298 297 296 295 294 291 286 284 283 282 282 282 281 280 280 280 280 279 279 279 280 279 280 280 280 280 279 279 279 278 277 276 276 275 275 275
305 303 302 301 298 297 298 296 296 295 292 291 291 288 286 284 283 282 283 282 282 281 280 279 279 278 278 278 279 279 280 280 279 279 279 278 278 278 277 276 276 276 275 275
301 301 299 297 294 296 295 294 292 290 288 288 288 287 285 284 283 282 282 282 281 281 281 279 278 278 278 278 278 278 279 279 279 278 278 278 277 277 277 278 277 276 276 275
298 298 298 298 295 295 290 291 290 289 288 287 286 285 285 284 283 283 282 282 281 281 279 278 277 277 277 278 278 277 277 278 278 277 276 276 276 276 276 276 275 276 275 275
Wind_Speed
2 3 8 10 9 7 6 9 9 6 6 6 7 2 2 4 10 13 13 12 12 13 15 21 25 27 31 33 34 33 34 32 32 30 33 30 29 33 34 34 33 28 26 27
2 6 13 9 10 8 10 13 11 5 4 5 5 11 4 9 8 13 14 13 11 11 13 21 25 29 30 29 31 31 33 34 33 25 27 23 29 23 31 35 32 28 29 28
8 8 5 9 11 12 12 10 5 3 4 4 4 9 1 10 15 16 14 11 13 12 13 15 23 25 27 29 31 29 29 31 28 28 30 29 31 28 22 26 31 28 28 33
7 11 16 15 10 7 4 3 0 3 5 3 4 6 6 9 12 13 11 11 10 12 12 13 19 22 23 25 28 28 28 26 25 27 24 23 23 26 28 28 31 34 30 31
8 3 1 3 5 2 3 1 3 2 2 4 2 2 6 9 7 8 8 10 9 9 11 12 18 22 23 25 25 25 24 24 24 25 25 24 24 25 30 30 29 30 31 29
9 2 4 6 4 4 4 4 6 3 3 4 4 6 5 4 2 5 7 9 10 10 9 13 18 21 22 26 28 29 29 29 28 28 27 25 26 28 29 29 30 29 28 28
4 6 9 5 5 4 3 5 3 4 1 6 3 3 1 5 7 7 7 7 7 8 9 10 15 20 23 26 28 29 30 30 30 29 28 28 26 27 29 29 28 28 29 27
3 5 2 2 3 7 5 8 5 6 3 4 7 5 3 6 7 7 8 7 8 8 9 11 18 21 25 27 29 29 29 29 30 29 29 27 27 25 26 26 27 28 27 27
5 4 1 4 2 4 1 1 4 1 0 3 4 2 4 6 4 4 5 7 9 8 10 12 18 20 23 24 28 26 28 28 29 29 29 28 26 24 25 29 29 28 28 28
4 2 3 1 3 3 5 4 1 2 4 8 4 4 4 5 1 3 5 6 6 8 11 10 16 19 23 24 28 25 28 29 29 31 30 29 27 25 23 21 22 21 22 23
4 4 3 2 3 4 2 1 1 3 4 4 3 5 4 7 4 3 4 5 4 8 8 10 16 19 22 24 29 27 30 32 33 35 34 31 29 27 24 22 19 18 18 19
2 4 2 6 5 4 3 4 5 5 6 4 6 9 2 6 5 5 4 5 7 6 5 8 13 17 21 24 29 30 34 36 36 34 32 31 30 29 28 27 26 25 23 23
6 1 2 7 5 3 4 0 2 3 2 7 6 6 5 5 6 5 5 4 4 6 7 8 12 16 21 25 29 32 33 33 35 35 34 33 30 31 31 30 30 30 30 32
8 4 6 7 4 3 3 5 5 3 2 3 6 4 10 10 9 6 4 4 3 4 6 7 10 16 20 23 26 28 31 33 35 34 35 34 35 30 35 32 34 36 36 37
5 5 3 3 4 4 5 11 13 8 12 6 5 7 7 12 9 7 5 4 3 4 7 9 9 14 19 23 25 26 28 30 32 31 35 36 35 33 32 37 38 40 40 38
1 2 3 4 7 8 12 17 15 16 11 6 4 6 5 8 10 7 6 6 4 4 6 9 12 15 18 20 23 23 26 28 28 29 30 33 35 36 36 33 40 40 37 41
5 4 3 4 4 7 8 10 11 4 7 7 9 6 14 11 11 9 8 7 5 4 5 7 9 12 14 17 18 21 22 24 27 28 29 33 34 35 34 35 34 36 39 40
6 5 3 3 3 4 6 3 4 6 2 4 5 14 13 11 7 8 6 8 7 5 5 6 8 12 14 16 19 19 22 24 27 28 29 32 33 33 32 33 37 35 36 36
6 4 2 2 3 6 3 3 4 4 4 8 12 13 13 13 10 4 7 7 7 5 5 7 8 10 16 19 18 18 22 24 27 30 29 30 30 31 34 34 32 32 31 34
6 4 4 3 3 4 4 2 4 2 5 12 14 16 17 13 5 4 10 10 10 9 10 11 12 14 17 17 20 24 26 27 28 24 25 27 29 30 31 31 30 30 28 30
4 2 10 6 4 6 3 5 4 4 4 12 16 17 17 6 1 12 13 12 13 14 13 14 15 17 16 16 19 25 25 27 21 26 30 33 31 30 29 28 30 27 28 29
8 7 4 4 4 10 2 4 6 3 3 12 11 14 12 10 13 14 12 11 13 14 14 13 17 18 18 18 21 22 25 21 21 22 27 31 33 34 32 29 28 29 26 28
5 6 4 7 5 1 2 3 2 4 6 5 12 12 14 14 10 12 11 11 13 16 15 14 15 19 19 19 21 24 19 22 21 25 27 24 27 31 33 30 29 29 30 29
3 3 3 2 4 4 3 2 3 2 4 5 9 18 17 13 14 12 10 12 12 16 16 15 17 19 19 21 20 20 18 18 23 25 26 27 26 23 26 31 27 29 31 29
4 5 5 2 2 1 5 3 6 7 10 12 11 14 14 18 14 12 9 12 17 19 17 16 15 16 16 17 21 20 16 16 19 22 22 23 24 26 27 24 25 27 30 31
4 6 4 5 7 4 4 8 11 11 9 12 15 12 14 18 16 19 14 16 17 17 21 17 14 14 14 15 18 19 16 17 18 18 20 21 23 24 24 25 25 23 25 26
Wind_Direction
220 125 228 226 215 231 276 279 269 255 266 339 298 245 261 324 34 48 62 65 63 55 47 41 30 25 18 14 9 3 358 357 354 353 347 338 336 327 316 308 308 312 306 315
318 230 241 236 250 237 249 262 265 256 283 316 313 304 158 82 67 79 71 56 48 38 29 26 23 16 12 6 2 357 353 350 349 350 339 327 317 311 309 306 307 303 299 296
202 237 277 228 253 256 263 250 267 281 312 319 323 289 55 76 91 78 67 63 50 35 24 16 13 10 4 359 353 350 348 345 346 335 333 326 316 311 317 313 307 306 305 293
247 242 232 255 250 223 259 274 133 47 45 290 72 290 265 105 87 68 62 54 43 29 23 14 6 2 355 349 346 345 343 342 335 332 328 322 316 308 307 303 300 301 304 302
233 315 4 267 237 123 178 108 70 73 64 314 125 140 276 125 85 67 58 56 48 35 19 6 4 355 350 346 341 340 340 336 333 330 325 318 309 303 301 299 298 297 298 297
250 269 277 228 281 201 165 87 32 40 113 263 267 179 277 30 80 91 64 50 42 23 15 9 357 352 347 344 345 345 344 340 338 332 325 317 308 302 297 296 295 296 295 295
344 257 261 221 256 213 123 75 351 321 358 233 26 352 360 93 66 82 66 56 41 22 10 360 356 352 347 348 350 347 345 340 338 335 327 319 307 297 289 288 288 290 292 290
180 314 229 296 184 197 190 156 167 232 228 271 314 247 213 104 78 77 82 66 39 22 9 1 355 352 351 350 348 344 346 340 340 336 329 321 309 298 290 285 282 282 282 284
194 250 267 94 107 111 189 136 195 182 136 262 232 90 187 138 76 51 42 44 33 15 10 1 354 355 349 347 347 346 347 344 344 340 337 331 325 316 301 293 284 277 277 278
221 282 255 37 84 21 149 169 60 359 278 262 238 218 223 188 212 16 39 45 23 14 7 352 353 351 349 351 346 351 353 348 345 347 346 342 340 340 335 326 314 311 303 294
135 140 261 57 146 179 10 283 188 190 179 238 291 261 214 185 176 118 66 82 46 22 353 339 344 350 350 352 352 356 357 355 353 352 349 350 353 359 2 359 351 347 342 336
142 142 209 229 276 286 202 230 201 207 241 238 239 260 133 156 144 115 69 30 26 33 340 332 344 351 356 359 358 360 1 359 355 354 352 355 2 11 15 13 15 18 19 19
175 141 17 335 356 29 79 206 183 224 137 214 224 259 166 148 121 105 89 55 22 12 355 346 356 360 3 3 1 2 357 355 357 358 358 3 6 19 20 20 23 26 29 30
87 147 171 226 205 155 250 245 263 196 195 243 217 222 195 185 168 138 115 98 59 25 357 357 4 5 7 5 3 357 358 359 1 3 5 7 8 18 27 27 31 34 34 34
105 193 148 246 239 250 233 255 266 243 245 220 249 210 205 186 160 142 146 130 76 22 11 10 11 4 9 6 2 0 2 3 4 9 12 9 12 20 30 33 33 35 37 37
41 208 95 311 263 250 263 260 251 244 246 241 203 231 148 116 115 140 147 124 103 43 23 19 16 16 14 7 2 357 5 8 9 15 16 16 19 23 26 31 35 35 36 38
143 124 81 270 307 299 279 242 224 219 219 220 229 204 153 151 155 157 146 129 111 70 39 29 19 21 13 7 2 2 8 14 19 21 21 25 25 26 27 32 37 35 35 36
134 123 131 250 351 252 244 228 239 219 233 146 95 142 152 141 109 115 125 136 117 96 67 45 23 20 17 25 20 19 23 24 26 26 26 27 31 30 29 34 35 35 37 37
137 128 172 175 217 278 251 221 186 183 250 160 141 136 126 123 117 107 124 118 117 114 95 67 50 37 50 49 41 38 36 35 33 27 26 28 33 35 35 35 33 33 34 38
127 141 142 170 239 251 242 199 147 123 287 158 145 151 152 157 169 165 149 132 124 120 103 84 76 65 60 52 55 53 47 44 41 33 34 36 39 42 40 40 38 38 38 41
167 193 203 212 241 281 197 150 141 93 249 156 153 157 160 178 328 134 134 130 133 125 111 99 85 69 60 62 61 56 54 50 49 49 51 50 48 45 45 43 43 42 40 42
180 177 190 191 197 257 126 101 175 192 39 150 152 157 141 119 122 128 134 139 139 135 124 105 85 71 64 64 65 61 55 58 56 54 51 51 50 51 50 46 44 43 42 42
196 189 183 186 213 213 262 212 145 143 140 156 145 144 139 138 139 142 147 151 152 140 129 108 99 79 67 63 61 56 59 55 57 58 54 46 45 49 52 47 42 42 40 40
236 186 156 110 211 219 204 54 86 99 122 137 146 147 148 147 149 146 148 151 156 158 143 123 102 84 70 64 61 58 61 59 53 55 53 51 48 46 50 58 50 44 39 36
203 137 146 282 296 53 265 178 138 99 110 112 127 150 149 144 151 151 150 155 159 162 165 137 117 98 81 74 68 62 61 67 58 56 55 51 48 48 53 54 56 56 48 42
185 170 168 221 195 168 220 157 144 133 140 139 134 131 146 148 148 149 153 159 158 143 137 129 118 110 100 84 75 66 67 69 67 53 48 54 55 56 56 60 59 52 49 46